Regional Weather Roundup
Issued by NWS

Home | Current Version | Previous Version | Text Only | Print | Product List | Glossary On
Versions: 1 2 3 4 5 6 7 8 9 10 11 12 13 14 15 16 17 18 19 20 21 22 23 24 25 26 27 28 29 30 31 32 33 34 35 36 37 38 39 40 41 42 43 44 45 46 47 48 49 50
000
ASUS42 KFFC 011703
RWRGA
WEATHER ROUNDUP FOR GEORGIA
NATIONAL WEATHER SERVICE PEACHTREE CITY GA
1200 PM EST SUN FEB 01 2015

NOTE: "FAIR" INDICATES FEW OR NO CLOUDS BELOW 12,000 FEET WITH NO
SIGNIFICANT WEATHER AND/OR OBSTRUCTIONS TO VISIBILITY.

* = USE WITH CAUTION. THE STATIONS MARKED WITH AN ASTERISK MAY NOT
REPORT WEATHER SUCH AS PRECIPITATION, FOG, OR THUNDER AND ARE NOT
QUALITY CONTROLLED BY NWS.

THE REMARK "TC" DENOTES TEMPERATURE READING IN DEGREES CELSIUS.

GAZ001>058-011800-
NORTH GEORGIA

CITY           SKY/WX    TMP DP  RH WIND       PRES   REMARKS
ATLANTA        CLOUDY    55  42  61 S7        30.14F
ATHENS         CLOUDY    56  40  55 VRB5      30.17F
CHAMBLEE       CLOUDY    52  40  63 SE5       30.15F
PEACHTREE CITY CLOUDY    55  43  63 VRB6      30.15F
ROME           CLOUDY    50  40  68 S6        30.11F
WEST ATLANTA   CLOUDY    53  41  63 S6        30.14F
GAINESVILLE    CLOUDY    47  32  56 E3        30.18F
CARTERSVILLE   CLOUDY    51  40  65 VRB7      30.12F


CITY           SKY/WX    TMP DP  RH WIND       PRES   REMARKS
DALTON*        CLOUDY    48  39  71 CALM      30.12F
LAWRENCEVILLE* CLOUDY    52  36  54 CALM      30.16F
MARIETTA       CLOUDY    51  40  67 E6        30.14F
KENNESAW*      CLOUDY    52  41  66 SE8       30.16F
$$

GAZ059>098-102>109-011800-
CENTRAL GEORGIA

CITY           SKY/WX    TMP DP  RH WIND       PRES   REMARKS
AUGUSTA-BUSH   SUNNY     62  42  47 S14G22    30.19F
AUGUSTA-DANIEL SUNNY     60  40  47 SE9       30.19F
COLUMBUS       CLOUDY    57  44  62 SW3       30.14F
MACON          PTSUNNY   60  46  59 S12G21    30.17F
ROBINS AFB     CLOUDY    63  46  54 SE15G21   30.17F


CITY           SKY/WX    TMP DP  RH WIND       PRES   REMARKS
LAGRANGE*      CLOUDY    57  48  72 S6        30.13F
SYLVANIA*      SUNNY     65  49  56 S8        30.21F
MILLEDGEVILLE* MOSUNNY   61  48  63 CALM      30.16F
$$

GAZ099>101-110>166-011800-
SOUTH GEORGIA

CITY           SKY/WX    TMP DP  RH WIND       PRES   REMARKS
SAVANNAH       PTSUNNY   67  46  47 S17       30.23F
VALDOSTA       SUNNY     68  49  50 S15G30    30.17F
ALMA           SUNNY     67  48  50 S15G22    30.19F
ST SIMONS      SUNNY     66  49  54 SE8       30.23F
FT STEWART     MOSUNNY   70  48  44 S13       30.18F
ALBANY         SUNNY     68  48  48 S17G26    30.16F
HUNTER AFB     SUNNY     67  49  52 SE13      30.21F
MOODY AFB      SUNNY     69  48  47 S18G25    30.16F
BRUNSWICK      SUNNY     70  46  43 SE14      30.23F


CITY           SKY/WX    TMP DP  RH WIND       PRES   REMARKS
BAINBRIDGE*    SUNNY     72  52  49 S12G21    30.14F
MOULTRIE*      SUNNY     66  50  55 S10G18    30.16F
VIDALIA*       SUNNY     64  50  59 S10G16    30.18F
WAYCROSS*      SUNNY     71  53  52 S14G22    30.19F
DOUGLAS*       SUNNY     68  48  49 S9G18     30.19F
$$



USA.gov is the U.S. government's official web portal to all federal, state and local government web resources and services.